x

9444090 - Port Angeles, Wa (ptaw1) Weather Station

5:36pm - Mon 23rd Oct 2017 All times are PDT. -7 hours from GMT.

  • Wind
    3mph, 5mph gusts
  • Sea Temp 49°f
  • Air Temp 51°f
  • Sea Pressure 1037.5mb
  • 9444090 - Port Angeles, Wa
  • 9444090 - Port Angeles, Wa

More Historic Weather Station data

Upgrade to MSW Pro to gain access to the past 30 days of data for over 8000 Wavebouys and Weather Stations around the globe.

Join

Comparision Forecast

View Surf forecast
   
Mon 10/23 5:36pm 3 5 mph 1037.5mb 49f 51f
5:30pm 1 2 mph 1037.5mb 49f 51f
5:24pm  -  1 mph 1037.5mb 49f 51f
5:18pm  -  2 mph 1037.4mb 49f 51f
5:12pm 2 3 mph 1037.3mb 49f 51f
5:06pm 3 3 mph 1037.1mb 49f 51f
5:00pm 2 3 mph 1037mb 49f 51f
4:36pm 2 2 mph 1037mb 49f 51f
4:30pm 1 2 mph 1037.1mb 49f 51f
4:24pm  -  2 mph 1037mb 49f 51f
4:18pm 2 2 mph 1037mb 49f 51f
4:12pm 2 3 mph 1037mb 49f 52f
4:06pm 3 3 mph 1036.9mb 49f 52f
4:00pm 1 2 mph 1036.9mb 49f 52f
3:36pm 1 3 mph 1037mb 49f 51f
3:30pm 2 2 mph 1036.9mb 49f 51f
3:24pm 2 3 mph 1036.9mb 49f 52f
3:18pm 3 5 mph 1036.9mb 49f 52f
3:12pm 5 6 mph 1036.8mb 49f 52f
3:06pm 5 6 mph 1036.9mb 49f 52f
3:00pm 5 6 mph 1036.9mb 49f 51f
2:36pm 5 6 mph 1036.9mb 49f 51f
2:30pm 5 7 mph 1037mb 49f 52f
2:24pm 6 6 mph 1037.1mb 49f 52f
2:18pm 5 6 mph 1037.2mb 49f 52f
2:12pm 5 6 mph 1037.3mb 49f 52f
2:06pm 3 6 mph 1037.4mb 49f 52f
2:00pm 5 6 mph 1037.4mb 49f 52f
1:36pm 3 5 mph 1037.4mb 49f 52f
1:30pm 3 5 mph 1037.3mb 49f 52f
1:24pm 3 6 mph 1037.5mb 49f 52f
1:18pm 3 6 mph 1037.6mb 49f 52f
1:12pm 5 6 mph 1037.6mb 49f 52f
1:06pm 3 6 mph 1037.6mb 49f 51f
1:00pm 5 6 mph 1037.6mb 49f 51f
12:36pm 5 8 mph 1037.5mb 49f 51f
12:30pm 6 8 mph 1037.4mb 49f 51f
12:24pm 7 8 mph 1037.5mb 49f 51f
12:18pm 7 10 mph 1037.5mb 49f 51f
12:12pm 9 11 mph 1037.5mb 49f 50f
12:06pm 8 10 mph 1037.5mb 49f 50f
12:00pm 8 9 mph 1037.4mb 49f 50f
11:36am 6 8 mph 1037.3mb 49f 50f
11:30am 7 8 mph 1037.2mb 49f 50f
11:24am 6 8 mph 1037.1mb 49f 50f
11:18am 6 7 mph 1037.1mb 49f 50f
11:12am 7 8 mph 1037.2mb 49f 50f
11:06am 7 8 mph 1037.2mb 49f 50f
11:00am 5 7 mph 1037.2mb 49f 50f
10:36am 3 7 mph 1037mb 49f 50f
10:30am 3 7 mph 1036.9mb 49f 50f
10:24am 3 3 mph 1036.7mb 49f 50f
10:18am 2 2 mph 1036.6mb 49f 50f
10:12am 2 2 mph 1036.4mb 49f 51f
10:06am  -  1 mph 1036.3mb 49f 51f
10:00am 1 2 mph 1036.2mb 49f 50f
9:36am 2 3 mph 1036.2mb 49f 50f
9:30am 3 3 mph 1036.2mb 49f 50f
9:24am 3 5 mph 1036.2mb 49f 50f
9:18am 3 6 mph 1036.2mb 49f 50f
9:12am 3 5 mph 1036.1mb 49f 50f
9:06am 3 3 mph 1036.1mb 49f 50f
9:00am 2 5 mph 1036mb 49f 50f
8:36am 3 5 mph 1035.4mb 49f 49f
8:30am 3 5 mph 1035.4mb 49f 49f
8:24am 2 3 mph 1035.3mb 49f 48f
8:18am 2 3 mph 1035.3mb 49f 48f
8:12am 2 3 mph 1035.2mb 49f 48f
8:06am 2 3 mph 1035.2mb 49f 48f
8:00am 2 3 mph 1035.1mb 49f 49f
7:36am 6 6 mph 1034.8mb 49f 47f
7:30am 5 5 mph 1035.1mb 49f 47f
7:24am 2 3 mph 1035.2mb 49f 47f
7:18am 2 2 mph 1035.1mb 49f 47f
7:12am  -  1 mph 1035mb 49f 47f
7:06am  -  2 mph 1034.9mb 49f 47f
7:00am 2 5 mph 1034.8mb 49f 47f
6:36am 1 2 mph 1035mb 49f 47f
6:30am 2 5 mph 1035.1mb 49f 47f
6:24am 3 5 mph 1035mb 49f 47f
6:18am 1 2 mph 1034.8mb 49f 47f
6:12am 2 5 mph 1034.8mb 49f 47f
6:06am 3 5 mph 1034.6mb 49f 47f
6:00am 2 5 mph 1034.4mb 49f 46f
5:36am 3 3 mph 1034.6mb 49f 47f
5:30am 2 5 mph 1034.6mb 49f 47f
5:24am 3 5 mph 1034.4mb 49f 46f
5:18am 3 5 mph 1034.3mb 49f 46f
5:12am 2 2 mph 1034.2mb 49f 46f
5:06am 2 2 mph 1034.1mb 49f 46f
5:00am 2 3 mph 1034.2mb 49f 46f
4:36am 2 3 mph 1034mb 49f 46f
4:30am 1 2 mph 1034mb 49f 46f
4:24am 3 5 mph 1034mb 49f 46f
4:18am 2 3 mph 1033.9mb 49f 46f
4:12am 1 2 mph 1033.8mb 49f 46f
4:06am 2 3 mph 1033.7mb 49f 47f
4:00am 2 2 mph 1033.5mb 49f 46f
3:36am  -  2 mph 1033.7mb 49f 47f
3:30am 2 3 mph 1033.7mb 49f 48f
3:24am 5 6 mph 1033.7mb 49f 47f
3:18am 2 6 mph 1033.7mb 49f 46f
3:12am 3 5 mph 1033.6mb 49f 46f
3:06am 1 3 mph 1033.5mb 49f 46f
3:00am 2 3 mph 1033.5mb 49f 46f
2:36am 2 5 mph 1033.5mb 49f 47f
2:30am 3 8 mph 1033.5mb 49f 47f
2:24am 5 7 mph 1033.5mb 49f 47f
2:18am 6 8 mph 1033.5mb 49f 47f
2:12am 7 9 mph 1033.5mb 49f 46f
2:06am 6 8 mph 1033.4mb 49f 46f
2:00am 7 8 mph 1033.3mb 49f 46f
1:36am 8 9 mph 1032.6mb 49f 46f
1:30am 8 9 mph 1032.6mb 49f 46f
1:24am 6 8 mph 1032.5mb 49f 46f
1:18am 6 8 mph 1032.4mb 49f 46f
1:12am 6 7 mph 1032.3mb 49f 46f
1:06am 5 7 mph 1032.2mb 49f 45f
1:00am 2 3 mph 1032.1mb 49f 45f
12:36am 5 7 mph 1032.1mb 49f 46f
12:30am 6 7 mph 1032.1mb 49f 46f
12:24am 5 6 mph 1032mb 49f 46f
12:18am 1 7 mph 1031.7mb 49f 46f
12:12am 5 7 mph 1031.7mb 49f 46f
12:06am 8 10 mph 1031.6mb 49f 46f
12:00am 9 11 mph 1031.4mb 49f 46f
Sun 10/22 11:36pm 3 5 mph 1031.4mb 49f 46f
11:30pm 6 7 mph 1031.3mb 49f 46f
11:24pm 3 8 mph 1031.3mb 49f 47f
11:18pm 7 9 mph 1031.2mb 49f 48f
11:12pm 7 9 mph 1031mb 49f 46f
11:06pm 5 6 mph 1030.8mb 49f 46f
11:00pm 5 8 mph 1030.7mb 49f 47f
10:36pm 7 8 mph 1030.8mb 49f 47f
10:30pm 5 8 mph 1030.7mb 49f 47f
10:24pm 5 7 mph 1030.6mb 49f 46f
10:18pm 5 7 mph 1030.4mb 49f 46f
10:12pm 7 9 mph 1030.3mb 49f 47f
10:06pm 6 8 mph 1030.1mb 49f 46f
10:00pm 5 7 mph 1030mb 49f 47f
9:36pm 3 5 mph 1029.9mb 49f 47f
9:30pm 3 6 mph 1029.9mb 49f 47f
9:24pm 3 7 mph 1030mb 49f 47f
9:18pm 6 8 mph 1029.9mb 49f 47f
9:12pm 6 8 mph 1029.7mb 49f 48f
9:06pm 6 8 mph 1029.6mb 49f 49f
9:00pm 7 10 mph 1029.6mb 49f 50f
8:36pm 6 8 mph 1029.1mb 49f 49f
8:30pm 7 9 mph 1029mb 49f 49f
8:24pm 7 9 mph 1028.9mb 49f 49f
8:18pm 7 8 mph 1028.9mb 49f 49f
8:12pm 7 9 mph 1028.9mb 49f 49f
8:06pm 5 6 mph 1028.8mb 49f 49f
8:00pm 2 6 mph 1028.6mb 49f 49f
7:36pm 1 2 mph 1028.3mb 49f 50f
7:30pm  -  1 mph 1028.1mb 49f 50f
7:24pm 2 5 mph 1027.9mb 49f 50f
7:18pm 3 6 mph 1027.9mb 49f 51f
7:12pm 5 6 mph 1027.8mb 49f 51f
7:06pm 2 3 mph 1027.7mb 49f 52f
7:00pm 1 5 mph 1027.7mb 49f 53f
6:54pm 3 5 mph 1027.6mb 49f 53f
6:48pm 2 3 mph 1027.5mb 49f 52f
6:36pm  -  5 mph 1027.2mb 49f 52f
6:30pm 3 5 mph 1027mb 49f 53f
6:24pm 2 3 mph 1026.9mb 49f 53f
6:18pm 1 3 mph 1026.9mb 49f 53f
6:12pm 3 5 mph 1026.9mb 49f 54f
6:06pm 3 5 mph 1026.7mb 49f 54f
6:00pm 5 6 mph 1026.7mb 49f 54f
5:54pm 5 7 mph 1026.6mb 49f 54f
5:48pm 3 11 mph 1026.8mb 49f 53f
5:36pm  -  mph 1026.4mb 49f 53f
5:30pm  -  mph 1026.2mb 49f 53f
5:24pm  -  mph 1026.2mb 49f 54f
5:18pm  -  mph 1026.1mb 49f 55f
5:12pm  -  mph 1025.8mb 49f 56f
5:06pm  -  mph 1025.5mb 49f 55f
5:00pm  -  mph 1025.8mb 49f 54f
4:54pm  -  mph 1025.3mb 49f 55f
4:48pm  -  mph 1025.4mb 49f 55f
4:36pm 2 3 mph 1025.1mb 49f 55f
4:30pm 3 5 mph 1025mb 49f 55f
4:24pm 5 6 mph 1024.8mb 49f 55f
4:18pm 5 6 mph 1024.9mb 49f 55f
4:12pm 3 5 mph 1024.9mb 49f 55f
4:06pm 3 3 mph 1025mb 49f 56f
4:00pm 3 6 mph 1025.1mb 49f 56f
3:54pm 2 5 mph 1025mb 49f 56f
3:48pm 1 3 mph 1024.4mb 49f 54f
3:36pm 1 2 mph 1024.2mb 49f 55f
3:30pm 2 2 mph 1024.1mb 49f 56f
3:24pm 2 3 mph 1024mb 49f 55f
3:18pm 1 5 mph 1024mb 49f 56f
3:12pm 2 5 mph 1023.8mb 49f 55f
3:06pm 3 5 mph 1023.8mb 49f 56f
3:00pm 2 7 mph 1023.8mb 49f 56f
2:54pm 5 7 mph 1023.3mb 49f 55f
2:48pm 6 7 mph 1023.3mb 49f 56f
2:36pm 3 5 mph 1023mb 49f 55f
2:30pm 2 2 mph 1023mb 49f 58f
2:24pm  -  3 mph 1023.2mb 49f 58f
2:18pm 2 3 mph 1023.1mb 49f 57f
2:12pm 2 6 mph 1023mb 49f 56f
2:06pm 6 7 mph 1022.8mb 49f 56f
2:00pm 5 6 mph 1022.8mb 49f 55f
1:54pm 5 10 mph 1022.8mb 49f 54f
1:48pm 8 15 mph 1022.5mb 49f 53f
1:36pm 5 8 mph 1022.3mb 49f 56f
1:30pm 6 9 mph 1022.1mb 49f 56f
1:24pm 6 10 mph 1021.9mb 49f 56f
1:18pm 6 8 mph 1021.9mb 49f 59f
1:12pm 7 8 mph 1021.6mb 49f 58f
1:06pm 2 3 mph 1021.6mb 49f 58f
1:00pm 5 10 mph 1021.5mb 49f 56f
12:54pm 6 9 mph 1021.4mb 49f 54f
12:48pm 6 9 mph 1021.4mb 49f 53f
12:36pm 6 8 mph 1021.2mb 49f 53f
12:30pm 6 8 mph 1021.2mb 49f 53f
12:24pm 7 9 mph 1021.1mb 49f 52f
12:18pm 7 9 mph 1020.9mb 49f 52f
12:12pm 6 10 mph 1020.9mb 49f 53f
12:06pm 9 11 mph 1020.8mb 49f 53f
12:00pm 9 14 mph 1020.7mb 49f 53f
11:54am 11 16 mph 1020.5mb 49f 53f
11:48am 10 18 mph 1020.4mb 49f 53f
11:36am 3 5 mph 1020.1mb 49f 54f
11:30am 2 5 mph 1020mb 49f 57f
11:24am  -  6 mph 1019.7mb 49f 59f
11:18am 6 7 mph 1019.4mb 49f 57f
11:12am 6 7 mph 1019.3mb 49f 57f
11:06am 6 8 mph 1018.9mb 49f 55f
11:00am 9 10 mph 1018.8mb 49f 54f
10:54am 9 10 mph 1018.7mb 49f 55f
10:48am 7 8 mph 1018.7mb 49f 56f
10:36am 8 10 mph 1018.5mb 49f 56f
10:30am 3 6 mph 1018.4mb 49f 58f
10:24am 5 8 mph 1018.4mb 49f 57f
10:18am 5 8 mph 1018.2mb 49f 56f
10:12am 6 8 mph 1018.3mb 49f 56f
10:06am 3 6 mph 1018.1mb 49f 57f
10:00am 3 6 mph 1017.8mb 49f 55f
9:54am 5 6 mph 1017.6mb 49f 54f
9:48am 3 5 mph 1017.4mb 49f 55f
9:36am 5 8 mph 1017mb 49f 55f
9:30am 5 7 mph 1016.8mb 49f 54f
9:24am 3 9 mph 1016.6mb 49f 54f
9:18am 6 11 mph 1016.5mb 49f 54f
9:12am 9 13 mph 1016.5mb 49f 55f
9:06am 9 13 mph 1016.3mb 49f 55f
9:00am 7 13 mph 1016.3mb 49f 56f
8:54am 7 14 mph 1016.1mb 49f 56f
8:48am 8 17 mph 1015.9mb 49f 56f
8:36am 6 11 mph 1015.4mb 49f 54f
8:30am 6 10 mph 1015.2mb 49f 54f
8:24am 6 8 mph 1014.8mb 49f 53f
8:18am 2 7 mph 1014.8mb 49f 52f
8:12am 5 8 mph 1014.7mb 49f 52f
8:06am 6 9 mph 1014.4mb 49f 53f
8:00am 7 11 mph 1014.3mb 49f 53f
7:54am 10 16 mph 1014.2mb 49f 53f
7:48am 11 16 mph 1014.3mb 49f 52f
7:36am 10 14 mph 1013.9mb 49f 51f
7:30am 7 9 mph 1013.7mb 49f 52f
7:24am 3 6 mph 1013.5mb 49f 52f
7:18am 6 9 mph 1013.5mb 49f 52f
7:12am 7 21 mph 1013.5mb 49f 52f
7:06am 20 24 mph 1013.6mb 49f 53f
7:00am 7 14 mph 1013.2mb 49f 54f
6:54am 9 14 mph 1012.7mb 49f 53f
6:48am 9 14 mph 1012.3mb 49f 53f
6:36am 7 9 mph 1011.6mb 49f 51f
6:30am 5 7 mph 1011.6mb 49f 51f
6:24am 7 9 mph 1011.4mb 49f 52f
6:18am 8 11 mph 1011.3mb 49f 53f
6:12am 8 11 mph 1011.2mb 49f 53f
6:06am 9 13 mph 1011.3mb 49f 53f
6:00am 9 14 mph 1011.3mb 49f 53f
5:54am 10 15 mph 1011.3mb 49f 53f
5:48am 10 17 mph 1011.3mb 49f 53f
5:36am 7 13 mph 1011mb 49f 53f
5:30am 9 17 mph 1010.9mb 49f 53f
5:24am 11 20 mph 1010.7mb 49f 53f
5:18am 9 15 mph 1010.7mb 49f 53f
5:12am 9 13 mph 1010.4mb 49f 53f
5:06am 8 11 mph 1010.1mb 49f 53f
5:00am 8 10 mph 1010mb 49f 53f
4:54am 7 9 mph 1009.9mb 49f 53f
4:48am 8 11 mph 1009.7mb 49f 53f
4:36am 6 9 mph 1009.2mb 49f 53f
4:30am 8 13 mph 1009.1mb 49f 54f
4:24am 7 11 mph 1008.8mb 49f 54f
4:18am 8 13 mph 1008.5mb 49f 55f
4:12am 8 11 mph 1008.4mb 49f 55f
4:06am 6 10 mph 1008.3mb 49f 54f
4:00am 6 8 mph 1008.1mb 49f 53f
3:54am 7 10 mph 1007.8mb 49f 54f
3:48am 5 7 mph 1007.6mb 49f 54f
3:36am 6 9 mph 1007.4mb 49f 55f
3:30am 7 9 mph 1007.4mb 49f 54f
3:24am 7 9 mph 1007.1mb 49f 53f
3:18am 7 11 mph 1007mb 49f 53f
3:12am 7 11 mph 1006.8mb 49f 53f
3:06am 5 8 mph 1006.7mb 49f 53f
3:00am 5 9 mph 1006.5mb 49f 53f
2:54am 8 14 mph 1006.5mb 49f 53f
2:48am 7 9 mph 1006.4mb 49f 53f
2:36am 2 5 mph 1006.1mb 49f 52f
2:30am  -  3 mph 1005.9mb 49f 52f
2:24am 2 5 mph 1005.8mb 49f 53f
2:18am 1 5 mph 1005.5mb 49f 53f
2:12am 2 3 mph 1005.3mb 49f 53f
2:06am  -  3 mph 1005mb 49f 53f
2:00am 3 6 mph 1004.7mb 49f 52f
1:54am 2 3 mph 1004.6mb 49f 52f
1:48am 3 5 mph 1004.4mb 49f 52f
1:36am 3 5 mph 1004.1mb 49f 52f
1:30am 2 6 mph 1003.8mb 49f 52f
1:24am 6 7 mph 1003.6mb 49f 51f
1:18am 6 6 mph 1003.5mb 49f 51f
1:12am 3 6 mph 1003.7mb 49f 52f
1:06am 5 7 mph 1003.5mb 49f 52f
1:00am 3 6 mph 1003.4mb 49f 52f
12:54am 1 3 mph 1003.2mb 49f 53f
12:48am 3 5 mph 1003.3mb 49f 52f
12:36am 8 13 mph 1002.8mb 49f 53f
12:30am 8 10 mph 1002.4mb 49f 52f
12:24am 2 6 mph 1002.1mb 49f 53f
12:18am 6 8 mph 1002.3mb 49f 52f
12:12am 2 6 mph 1002.2mb 49f 53f
12:06am 3 5 mph 1002.1mb 49f 52f
12:00am 2 5 mph 1002.3mb 49f 52f
Sat 10/21 11:54pm 3 5 mph 1002.4mb 49f 52f
11:48pm 2 6 mph 1002.4mb 49f 52f
11:36pm 1 2 mph 1002.3mb 49f 52f
11:30pm 2 6 mph 1002.2mb 49f 52f
11:24pm 3 6 mph 1002.1mb 49f 52f
11:18pm 3 6 mph 1002.2mb 49f 52f
11:12pm 3 5 mph 1002mb 49f 52f
11:06pm 2 5 mph 1001.8mb 49f 52f
11:00pm 3 7 mph 1001.7mb 49f 52f
10:54pm 5 7 mph 1002mb 49f 52f
10:48pm 3 5 mph 1002mb 49f 52f
10:36pm 3 6 mph 1001.9mb 49f 52f
10:30pm 3 5 mph 1001.7mb 49f 51f
10:24pm 5 6 mph 1001.8mb 49f 51f
10:18pm 2 5 mph 1002.2mb 49f 51f
10:12pm 3 5 mph 1002.1mb 49f 51f
10:06pm 2 3 mph 1002.3mb 49f 51f
10:00pm 3 5 mph 1002mb 49f 51f
9:54pm  -  5 mph 1002.1mb 49f 51f
9:48pm 3 5 mph 1002mb 49f 51f
9:36pm 3 7 mph 1001.9mb 49f 50f
9:30pm 3 5 mph 1001.8mb 49f 50f
9:24pm 1 5 mph 1001.8mb 49f 50f
9:18pm 5 7 mph 1001.6mb 49f 49f
9:12pm 3 5 mph 1001.5mb 49f 49f
9:06pm 3 5 mph 1001.6mb 49f 49f
9:00pm 3 5 mph 1001.7mb 49f 49f
8:54pm  -  3 mph 1001.4mb 49f 49f
8:48pm 2 3 mph 1001.4mb 49f 49f
8:36pm 1 2 mph 1001.3mb 49f 49f
8:30pm 3 7 mph 1001.1mb 49f 49f
8:24pm 6 8 mph 1001.2mb 49f 49f
8:18pm 1 3 mph 1000.6mb 49f 49f
8:12pm 2 6 mph 1000.6mb 49f 49f
8:06pm 6 7 mph 1000.5mb 49f 49f
8:00pm 2 7 mph 1000.5mb 49f 49f
7:54pm 6 7 mph 1000.3mb 49f 49f
7:48pm 3 7 mph 1000.2mb 49f 49f
7:36pm 5 5 mph 1000.1mb 49f 49f
7:30pm 5 7 mph 1000.1mb 49f 49f
7:24pm 2 6 mph 1000.1mb 49f 49f
7:18pm 3 5 mph 1000.3mb 49f 49f
7:12pm 3 5 mph 1000.4mb 49f 49f
7:06pm 1 2 mph 1000.4mb 49f 49f
7:00pm 3 5 mph 1000.2mb 49f 48f
6:54pm 2 3 mph 1000.2mb 49f 48f
6:48pm  -  1 mph 1000mb 49f 48f
6:30pm 2 3 mph 999.9mb 49f 48f
6:24pm 3 6 mph 999.9mb 49f 48f
6:18pm 2 6 mph 999.7mb 49f 48f
6:12pm 2 6 mph 999.8mb 49f 48f
6:06pm 2 6 mph 999.7mb 49f 48f
6:00pm 2 6 mph 999.7mb 49f 48f
5:54pm 2 7 mph 999.7mb 49f 48f
5:48pm 6 7 mph 999.6mb 49f 48f
5:36pm 5 7 mph 999.4mb 49f 48f
5:30pm 5 6 mph 999.4mb 49f 48f
5:24pm 5 7 mph 999.4mb 49f 48f
5:18pm 7 8 mph 999.5mb 49f 48f
5:12pm 8 11 mph 999.7mb 49f 48f
5:06pm 9 13 mph 999.8mb 49f 47f
5:00pm 11 14 mph 999.7mb 49f 47f
4:54pm 10 13 mph 999.7mb 49f 48f
4:48pm 7 9 mph 999.7mb 49f 48f
4:36pm 6 6 mph 999.8mb 49f 47f
4:30pm 2 6 mph 999.8mb 49f 47f
4:24pm 3 5 mph 999.9mb 49f 48f
4:18pm 2 3 mph 1000.2mb 49f 47f
4:12pm 2 2 mph 1000.3mb 49f 48f
4:06pm  -  5 mph 1000.6mb 49f 48f
4:00pm 2 6 mph 1000.8mb 49f 47f
3:54pm 6 6 mph 1001.1mb 49f 48f
3:48pm 5 7 mph 1001.4mb 49f 48f
3:36pm 6 8 mph 1001.9mb 49f 48f
3:30pm 8 8 mph 1002.1mb 49f 48f
3:24pm 8 9 mph 1002.2mb 49f 48f
3:18pm 6 8 mph 1002.5mb 49f 48f
3:12pm 7 9 mph 1002.6mb 49f 48f
3:06pm 7 7 mph 1002.8mb 49f 48f
3:00pm 5 7 mph 1003mb 49f 48f
2:54pm 6 7 mph 1003.1mb 49f 48f
2:48pm 5 6 mph 1003.2mb 49f 48f
2:36pm 5 7 mph 1003.2mb 49f 48f
2:30pm 3 5 mph 1003.4mb 49f 48f
2:24pm 5 5 mph 1003.6mb 49f 48f
2:18pm 1 3 mph 1003.7mb 49f 48f
2:12pm 1 2 mph 1003.7mb 49f 49f
2:06pm 1 2 mph 1003.8mb 49f 48f
2:00pm 2 2 mph 1004mb 49f 48f
1:54pm  -  3 mph 1004mb 49f 48f
1:48pm 3 3 mph 1004.1mb 49f 48f
1:36pm 1 3 mph 1004.1mb 49f 48f
1:30pm 2 3 mph 1004.3mb 49f 48f
1:24pm 2 5 mph 1004.3mb 49f 48f
1:18pm 3 5 mph 1004.3mb 49f 48f
1:12pm 5 6 mph 1004.4mb 49f 48f
1:06pm 3 5 mph 1004.4mb 49f 48f
1:00pm 1 3 mph 1004.4mb 49f 48f
12:54pm 3 5 mph 1004.3mb 49f 48f
12:48pm 2 5 mph 1004.3mb 49f 48f
12:36pm 5 6 mph 1004.3mb 49f 48f
12:30pm 6 7 mph 1004.2mb 49f 48f
12:24pm 6 7 mph 1004.2mb 49f 48f
12:18pm 5 8 mph 1004.1mb 49f 48f
12:12pm 3 7 mph 1004.2mb 49f 48f
12:06pm 5 7 mph 1004.3mb 49f 48f
12:00pm 3 6 mph 1004.2mb 49f 48f
11:54am 6 7 mph 1004.2mb 49f 47f
11:48am 6 10 mph 1004.4mb 49f 47f
11:36am 8 10 mph 1004.4mb 49f 48f
11:30am 7 9 mph 1004.2mb 49f 47f
11:24am 8 10 mph 1004.4mb 49f 47f
11:18am 8 9 mph 1004.6mb 49f 48f
11:12am 5 6 mph 1004.3mb 49f 47f
11:06am 1 2 mph 1004.1mb 49f 47f
11:00am 2 2 mph 1004.1mb 49f 47f
10:54am  -  3 mph 1004mb 49f 47f
10:48am 2 3 mph 1003.9mb 49f 47f
10:36am 3 5 mph 1003.8mb 49f 47f
10:30am 3 5 mph 1003.9mb 49f 47f
10:24am 3 5 mph 1003.8mb 49f 47f
10:18am 1 5 mph 1003.7mb 49f 47f
10:12am 3 3 mph 1003.6mb 49f 47f
10:06am 3 6 mph 1003.7mb 49f 47f
10:00am 5 6 mph 1003.7mb 49f 47f
9:54am 2 5 mph 1003.6mb 49f 47f
9:48am 2 3 mph 1003.6mb 49f 47f
9:36am 2 3 mph 1003.4mb 49f 47f
9:30am 1 2 mph 1003.5mb 49f 47f
9:24am 2 2 mph 1003.4mb 49f 47f
9:18am 1 2 mph 1003.5mb 49f 47f
9:12am  -  3 mph 1003.6mb 49f 46f
9:06am 2 3 mph 1003.7mb 49f 47f
9:00am 1 3 mph 1003.9mb 49f 46f
8:54am 1 2 mph 1003.7mb 49f 46f
8:48am 1 6 mph 1003.8mb 49f 46f
8:36am 3 6 mph 1003.9mb 49f 45f
8:30am 2 5 mph 1004mb 49f 45f
8:24am  -  2 mph 1003.8mb 49f 45f
8:18am 3 5 mph 1003.7mb 49f 45f
8:12am 3 5 mph 1004mb 49f 45f
8:06am 2 6 mph 1003.9mb 49f 44f
8:00am 2 6 mph 1003.7mb 49f 44f
7:54am 3 6 mph 1003.7mb 49f 44f
7:36am  -  3 mph 1004mb 49f 44f
7:30am 2 5 mph 1004.2mb 49f 44f
7:24am 1 8 mph 1004.4mb 49f 44f
7:18am 2 7 mph 1004.3mb 49f 44f
7:12am 1 5 mph 1004.4mb 49f 44f
7:06am 3 5 mph 1004.6mb 49f 44f
7:00am 3 6 mph 1004.9mb 49f 44f
6:54am 2 2 mph 1005.1mb 49f 44f
6:48am 2 5 mph 1005.2mb 49f 44f
6:36am 6 7 mph 1005.5mb 49f 44f
6:30am 2 2 mph 1005.5mb 49f 44f
6:24am 2 3 mph 1005.7mb 49f 44f
6:18am 2 2 mph 1006mb 49f 44f
6:12am 2 3 mph 1006.2mb 49f 44f
6:06am 2 3 mph 1006.5mb 49f 44f
6:00am 5 6 mph 1006.4mb 49f 44f
5:54am 1 3 mph 1006.4mb 49f 44f
5:48am 3 6 mph 1006.7mb 49f 44f
5:36am 2 3 mph 1006.9mb 49f 44f
5:30am 2 2 mph 1007.1mb 49f 44f
5:24am 2 3 mph 1007.2mb 49f 44f
5:18am 2 3 mph 1007.5mb 49f 44f
5:12am 1 2 mph 1007.5mb 49f 44f
5:06am 1 2 mph 1007.9mb 49f 44f
5:00am 1 2 mph 1007.9mb 49f 44f
4:54am 2 3 mph 1008.2mb 49f 44f
4:48am 1 3 mph 1008.3mb 49f 44f
4:36am 5 7 mph 1008.2mb 49f 44f
4:30am 6 7 mph 1008.4mb 49f 44f
4:24am 6 6 mph 1008.5mb 49f 44f
4:18am 5 6 mph 1008.6mb 49f 44f
4:12am 6 7 mph 1008.9mb 49f 44f
4:06am 3 5 mph 1009.1mb 49f 44f
4:00am 5 6 mph 1009.1mb 49f 44f
3:54am 2 3 mph 1009.3mb 49f 44f
3:48am 2 3 mph 1009.4mb 49f 44f
3:36am 2 2 mph 1009.5mb 49f 44f
3:30am 2 2 mph 1009.5mb 49f 44f
3:24am 2 3 mph 1009.7mb 49f 44f
3:18am 5 6 mph 1009.8mb 49f 44f
3:12am 3 5 mph 1009.9mb 49f 44f
3:06am 1 3 mph 1010mb 49f 44f
3:00am 3 5 mph 1010mb 49f 44f
2:54am 2 3 mph 1010.1mb 49f 44f
2:36am 5 6 mph 1010.2mb 49f 44f
2:30am 2 5 mph 1010.3mb 49f 44f
2:24am 5 6 mph 1010.3mb 49f 44f
2:18am 3 5 mph 1010.3mb 49f 44f
2:12am 3 5 mph 1010.4mb 49f 45f
2:06am 3 5 mph 1010.5mb 49f 45f
2:00am 2 3 mph 1010.5mb 49f 45f
1:54am 2 3 mph 1010.5mb 49f 44f
1:48am 3 5 mph 1010.5mb 49f 44f
1:36am 5 6 mph 1010.7mb 49f 44f
1:30am 5 6 mph 1010.7mb 49f 44f
1:24am 2 5 mph 1010.7mb 49f 44f
1:18am 3 6 mph 1010.7mb 49f 45f
1:12am 6 7 mph 1010.9mb 49f 44f
1:06am 3 3 mph 1010.8mb 49f 45f
1:00am 3 6 mph 1010.9mb 49f 45f
12:54am 3 5 mph 1011.1mb 49f 44f
12:48am  -  3 mph 1011.1mb 49f 44f
12:36am 2 6 mph 1011.3mb 49f 44f
12:30am 5 6 mph 1011.3mb 49f 44f
12:24am 5 6 mph 1011.4mb 49f 44f
12:18am 6 8 mph 1011.4mb 49f 45f
12:12am 6 7 mph 1011.5mb 49f 45f
12:06am 7 7 mph 1011.4mb 49f 45f
12:00am 5 6 mph 1011.5mb 49f 45f
Fri 10/20 11:54pm 5 7 mph 1011.6mb 49f 45f
11:48pm 6 7 mph 1011.8mb 49f 45f
11:36pm 6 7 mph 1011.9mb 49f 45f
11:30pm 6 7 mph 1012mb 49f 45f
11:24pm 6 8 mph 1012.1mb 49f 45f
11:18pm 7 8 mph 1012.1mb 49f 45f
11:12pm 2 6 mph 1012mb 49f 45f
11:06pm 5 6 mph 1012.1mb 49f 45f
11:00pm 3 7 mph 1012.1mb 49f 46f
10:54pm 7 8 mph 1012.1mb 49f 45f
10:48pm 5 6 mph 1012.1mb 49f 44f
10:36pm 3 7 mph 1012.2mb 49f 44f
10:30pm 6 7 mph 1012.3mb 49f 44f
10:24pm 3 6 mph 1012.3mb 49f 45f
10:18pm 3 5 mph 1012.3mb 49f 44f
10:12pm 3 5 mph 1012.4mb 49f 44f
10:06pm 5 7 mph 1012.4mb 49f 44f
10:00pm 6 7 mph 1012.5mb 49f 44f
9:54pm 2 7 mph 1012.4mb 49f 44f
9:48pm 6 9 mph 1012.3mb 49f 44f
9:36pm 6 7 mph 1012mb 49f 44f
9:30pm 6 6 mph 1012mb 49f 44f
9:24pm 5 6 mph 1012mb 49f 44f
9:18pm 3 6 mph 1011.9mb 49f 44f
9:12pm 3 5 mph 1011.9mb 49f 44f
9:06pm  -  3 mph 1011.9mb 49f 44f
9:00pm 2 3 mph 1011.8mb 49f 45f
8:54pm 1 5 mph 1011.7mb 49f 45f
8:48pm 3 6 mph 1011.5mb 49f 44f
8:36pm 3 6 mph 1011.5mb 49f 45f
8:30pm 2 3 mph 1011.5mb 49f 46f
8:24pm 3 5 mph 1011.6mb 49f 46f
8:18pm 3 5 mph 1011.6mb 49f 46f
8:12pm 2 5 mph 1011.5mb 49f 48f
8:06pm 5 9 mph 1011.4mb 49f 48f
8:00pm 8 10 mph 1011.3mb 49f 49f
7:54pm 7 10 mph 1011.3mb 49f 47f
7:48pm 7 9 mph 1011.1mb 49f 49f
7:36pm 6 7 mph 1011.1mb 49f 48f
7:30pm 6 7 mph 1011.1mb 49f 48f
7:24pm 6 11 mph 1011.1mb 49f 50f
7:18pm 7 11 mph 1010.9mb 49f 49f
7:12pm 8 13 mph 1010.9mb 49f 49f
7:06pm 9 17 mph 1010.8mb 49f 49f
7:00pm 10 13 mph 1010.8mb 49f 49f
6:54pm 9 15 mph 1010.7mb 49f 49f
6:48pm 11 15 mph 1010.7mb 49f 49f
6:36pm 8 10 mph 1010.5mb 49f 50f
6:30pm 9 11 mph 1010.5mb 49f 50f
6:24pm 11 14 mph 1010.3mb 49f 50f
6:18pm 8 11 mph 1010.2mb 49f 50f
6:12pm 9 13 mph 1010.1mb 49f 51f
6:06pm 9 13 mph 1010.1mb 49f 51f
6:00pm 7 15 mph 1010.1mb 49f 51f
5:54pm 8 15 mph 1009.9mb 49f 51f
5:48pm 9 14 mph 1009.8mb 49f 51f
5:36pm 9 14 mph 1009.6mb 49f 52f
5:30pm 11 16 mph 1009.6mb 49f 52f
5:24pm 9 14 mph 1009.5mb 49f 52f
5:18pm 9 14 mph 1009.5mb 49f 53f
5:12pm 8 16 mph 1009.4mb 49f 52f
5:06pm 10 15 mph 1009.2mb 49f 53f
5:00pm 9 14 mph 1009.1mb 49f 53f
4:54pm 7 9 mph 1009.1mb 49f 53f
4:48pm 7 10 mph 1009.1mb 49f 53f
4:36pm 7 11 mph 1009mb 49f 53f
4:30pm 10 16 mph 1009mb 49f 52f
4:24pm 7 13 mph 1008.9mb 49f 53f
4:18pm 8 13 mph 1008.8mb 49f 53f
4:12pm 8 17 mph 1008.7mb 49f 53f
4:06pm 6 13 mph 1008.6mb 49f 53f
4:00pm 7 11 mph 1008.5mb 49f 54f
3:54pm 6 10 mph 1008.5mb 49f 55f
3:48pm 6 11 mph 1008.4mb 49f 54f
3:36pm 8 15 mph 1008.2mb 49f 53f
3:30pm 10 21 mph 1008.2mb 49f 53f
3:24pm 20 31 mph 1008.2mb 49f 53f
3:18pm 11 26 mph 1008mb 49f 53f
3:12pm 13 22 mph 1007.9mb 49f 53f
3:06pm 7 14 mph 1007.9mb 49f 53f
3:00pm 9 14 mph 1007.7mb 49f 54f
2:54pm 8 11 mph 1007.6mb 50f 53f
2:48pm 10 15 mph 1007.5mb 50f 53f
2:36pm 9 14 mph 1007.4mb 50f 52f
2:30pm 9 15 mph 1007.4mb 50f 53f
2:24pm 8 10 mph 1007.2mb 50f 53f
2:18pm 13 16 mph 1007.2mb 50f 53f
2:12pm 13 15 mph 1007.2mb 50f 53f
2:06pm 9 14 mph 1007.1mb 50f 53f
2:00pm 5 11 mph 1007mb 50f 53f
1:54pm 6 13 mph 1007.1mb 50f 53f
1:48pm 7 13 mph 1007.1mb 50f 52f
1:36pm 7 14 mph 1007mb 50f 51f
1:30pm 10 20 mph 1007mb 50f 51f
1:24pm 14 21 mph 1007mb 50f 51f
1:18pm 17 23 mph 1006.9mb 50f 51f
1:12pm 18 25 mph 1006.6mb 50f 51f
1:06pm 23 29 mph 1006.4mb 50f 51f
1:00pm 23 29 mph 1006.2mb 50f 50f
12:54pm 20 26 mph 1006.2mb 50f 51f
12:48pm 17 22 mph 1006mb 50f 52f
12:36pm 16 20 mph 1005.9mb 49f 52f
12:30pm 15 22 mph 1005.8mb 49f 52f
12:24pm 16 21 mph 1005.6mb 49f 51f
12:18pm 16 18 mph 1005.5mb 49f 52f
12:12pm 11 15 mph 1005.4mb 49f 53f
12:06pm 10 13 mph 1005.3mb 49f 51f
12:00pm 11 14 mph 1005.3mb 49f 51f
11:54am 11 14 mph 1005.3mb 49f 50f
11:48am 9 14 mph 1005.1mb 49f 50f
11:36am 7 13 mph 1005.1mb 49f 49f
11:30am 11 15 mph 1005.1mb 49f 49f
11:24am 9 14 mph 1005mb 49f 49f
11:18am 11 16 mph 1005mb 49f 49f
11:12am 14 16 mph 1004.9mb 49f 49f
11:06am 13 16 mph 1004.9mb 49f 49f
11:00am 11 15 mph 1004.7mb 49f 49f
10:54am 13 16 mph 1004.6mb 49f 49f
10:48am 13 17 mph 1004.5mb 49f 49f
10:36am 15 20 mph 1004.4mb 49f 49f
10:30am 16 21 mph 1004.3mb 49f 49f
10:24am 13 17 mph 1004.2mb 49f 51f
10:18am 14 18 mph 1004.1mb 49f 51f
10:12am 10 13 mph 1004.1mb 49f 52f
10:06am 7 11 mph 1003.9mb 49f 52f
10:00am 7 11 mph 1003.8mb 49f 52f
9:54am 7 10 mph 1003.7mb 49f 51f
9:48am 9 13 mph 1003.6mb 49f 50f
8:54am 2 6 mph 1002.9mb 49f 46f
8:48am 2 6 mph 1002.7mb 49f 45f
7:54am 7 9 mph 1002.6mb 49f 43f
7:48am 5 8 mph 1002.5mb 49f 43f
6:54am 3 5 mph 1002.3mb 49f 44f
6:48am 3 6 mph 1002.4mb 49f 44f
6:36am 3 8 mph 1002.3mb 49f 43f
6:30am 7 9 mph 1002.1mb 49f 43f
6:24am 6 7 mph 1002mb 49f 43f
6:18am 6 7 mph 1001.9mb 49f 44f
6:12am 5 7 mph 1001.9mb 49f 44f
6:06am 5 7 mph 1001.9mb 49f 45f
6:00am 6 10 mph 1002mb 49f 45f
5:54am 6 8 mph 1001.9mb 49f 44f
5:48am 6 7 mph 1001.9mb 49f 44f
5:36am 6 7 mph 1001.7mb 49f 43f
5:30am 6 7 mph 1001.7mb 49f 43f
5:24am 5 7 mph 1001.6mb 49f 44f
5:18am 5 7 mph 1001.5mb 49f 43f
5:12am 6 8 mph 1001.4mb 49f 44f
5:06am 6 7 mph 1001.4mb 49f 43f
5:00am 3 5 mph 1001.4mb 49f 43f
4:54am 5 7 mph 1001.3mb 49f 44f
4:48am 3 5 mph 1001.1mb 49f 43f
4:36am 6 7 mph 1000.9mb 49f 44f
4:30am 6 7 mph 1000.9mb 49f 43f
4:24am 3 6 mph 1000.7mb 49f 44f
4:18am 3 5 mph 1000.7mb 49f 43f
4:12am 2 5 mph 1000.6mb 49f 43f
4:06am 2 7 mph 1000.5mb 49f 44f
4:00am 6 7 mph 1000.5mb 49f 44f
3:54am 2 3 mph 1000.4mb 49f 43f
3:48am 2 5 mph 1000.5mb 49f 43f
3:36am 3 6 mph 1000.3mb 49f 44f
3:30am 5 6 mph 1000.1mb 50f 44f
3:24am 5 5 mph 1000.1mb 50f 44f
3:18am 2 3 mph 1000mb 50f 45f
3:12am  -  1 mph 999.9mb 50f 45f
3:06am  -  5 mph 999.9mb 50f 44f
3:00am 5 6 mph 999.9mb 50f 45f
2:54am 5 6 mph 999.8mb 50f 45f
2:48am 3 6 mph 999.8mb 50f 45f
2:36am 6 11 mph 999.7mb 49f 48f
2:30am 9 11 mph 999.7mb 49f 48f
2:24am 10 14 mph 999.6mb 49f 48f
2:18am 9 13 mph 999.5mb 50f 48f